SCP
0 0 0 0 0 0 0 0 0 0 0 0 0 0 0 0 0 0 0 0 0 0 0 0 0 0 0 0 0 0 0 0 0 0 0 0 0 0 0 0 0 0 0
0 0 0 0 0 0 0 0 0 0 0 0 0 0 0 0 0 0 0 0 0 0 0 0 0 0 0 0 0 0 0 0 0 0 0 0 0 0 0 0 0 0 0
0 0 0 0 0 0 0 0 0 0 0 0 0 0 0 0 0 0 0 0 0 0 0 0 0 0 0 0 0 0 0 0 0 0 0 0 0 0 0 0 0 0 0
0 0 0 0 0 0 0 0 0 0 0 0 0 0 0 0 0 0 0 0 0 0 0 0 0 0 0 0 0 0 0 0 0 0 0 0 0 0 0 0 0 0 0
0 0 0 0 0 0 0 0 0 0 0 0 0 0 0 0 0 0 0 0 0 0 0 0 0 0 0 0 0 0 0 0 0 0 0 0 0 0 0 0 0 0 0
0 0 0 0 0 0 0 0 0 0 0 0 0 0 0 0 0 0 0 0 0 0 0 0 0 0 0 0 0 0 0 0 0 0 0 0 0 0 0 0 0 0 0
0 0 0 0 0 0 0 0 0 0 0 0 0 0 0 0 0 0 0 0 0 0 0 0 0 0 0 0 0 0 0 0 0 0 0 0 0 0 0 0 0 0 0
0 0 0 0 0 0 0 0 0 0 0 0 0 0 0 0 0 0 0 0 0 0 0 0 0 0 0 0 0 0 0 0 0 0 0 0 0 0 0 0 0 0 0
0 0 0 0 0 0 0 0 0 0 0 0 0 0 0 0 0 -0 0 0 0 0 0 0 0 0 0 0 0 0 0 0 0 0 0 0 0 0 0 0 0 0 0
0 0 0 0 0 0 0 0 0 0 0 0 0 0 0 0 -0 -0 0 0 0 0 0 0 0 0 0 0 0 0 0 0 0 0 0 0 0 0 0 0 0 0 0
0 0 0 0 0 0 0 0 0 0 0 0 0 0 0 0 0 -0 -0 0 0 0 0 0 0 0 0 -0 0 0 0 0 0 0 0 0 0 0 0 0 0 0 0
0 0 0 0 0 0 0 0 0 0 0 0 0 0 0 0 -0 -0 -0 -0 0 0 0 0 0 0 0 0 0 0 0 0 0 0 0 0 0 0 0 0 0 0 0
0 0 0 0 0 0 0 0 0 0 0 0 0 0 0 0 0 -0 -0 0 0 0 0 0 0 0 0 0 0 0 0 0 0 0 0 0 0 0 0 0 0 0 0
0 0 0 0 0 0 0 0 0 0 0 0 0 0 0 0 -0 -0 0 0 0 0 0 0 0 0 0 0 0 0 0 0 0 0 0 0 0 0 0 0 0 0 0
0 0 0 0 0 0 0 0 0 0 0 0 0 0 0 0 -0 -0 -0 0 0 0 0 0 0 0 0 0 0 0 0 0 0 0 0 0 0 0 0 0 0 0 0
0 0 0 0 0 0 0 0 0 0 0 0 0 0 0 -0 -0 -0 -0 -0 -0 -0 -0 0 0 0 0 0 0 0 0 0 0 0 0 0 0 0 0 0 0 0 0
0 0 0 0 0 0 0 0 0 0 0 0 0 0 -0 -0 -0 -0 -0 0 -0 0 0 0 0 0 0 0 0 0 0 0 0 0 0 0 0 0 0 0 0 0 0
0 0 0 0 0 0 0 0 0 0 0 0 0 0 0 0 -0 -0 -0 -0 0 0 0 0 0 0 0 0 0 0 0 0 0 0 0 0 0 0 0 0 0 0 0
0 0 0 0 0 0 0 0 0 0 0 0 0 0 0 -0 0 -0 -0 0 0 0 0 0 0 0 0 0 0 0 0 0 0 0 0 0 0 0 0 0 0 0 0
0 0 0 0 0 0 0 0 0 0 0 0 0 0 0 0 0 0 0 0 0 0 0 0 0 0 0 0 0 0 0 0 0 0 0 0 0 0 0 0 0 0 0
0 0 0 0 0 0 0 0 0 0 0 0 0 0 0 0 0 0 0 0 0 0 0 0 0 0 0 -0 0 0 0 0 0 -0 0 0 0 0 0 -0 -0 -0 -0
0 0 0 0 0 0 0 0 0 0 0 0 0 0 0 0 0 0 0 0 0 0 0 0 -0 -0 -0 -0 -0 -0 -0 -0 -0 -0 -0 -0 -0 -0 -0 -0 -0 -0 -0
0 0 0 0 0 0 0 0 0 0 0 0 0 0 0 0 0 0 0 0 0 0 -0 -0 -0 -0 -0 -0 -0 -0 -0 0 0 -0 -0 -0 -0 -0 -0 -0 -0 -0 -0
0 0 0 0 0 0 0 0 0 0 0 0 0 0 0 0 0 0 0 0 0 -0 -0 0 0 0 0 -0 -0 -0 -0 -0 -0 -0 -0 -0 -0 -0 -0 -0 -0 -0 -0
0 0 0 0 0 0 0 0 0 0 0 0 0 0 0 0 0 0 0 0 0 0 0 0 0 0 0 0 -0 -0 -0 -0 -0 -0 -0 -0 -0 0 0 -0 0 0 0
0 0 0 0 0 0 0 0 0 0 0 0 0 0 0 0 0 0 0 0 0 0 0 0 0 0 0 0 0 0 0 0 -0 -0 0 0 0 0 0 0 0 0 0
Wind_Speed_500mb
76 75 75 78 79 80 80 81 80 79 80 76 76 76 75 74 73 72 69 68 60 60 62 61 63 66 62 62 59 59 57 57 57 48 38 35 41 44 48 49 46 46 47
74 76 78 79 78 79 79 77 73 72 76 70 69 76 80 80 78 77 73 69 62 59 62 66 66 65 61 61 53 54 53 52 54 52 53 48 47 50 50 42 42 44 46
73 76 78 77 80 80 77 77 79 69 72 74 68 67 79 83 83 79 74 65 59 62 66 74 75 66 64 57 53 53 48 48 48 50 39 50 48 47 38 37 43 42 41
75 78 79 80 83 80 78 81 79 78 75 74 70 81 81 89 87 79 64 60 62 61 65 70 72 65 59 48 56 45 44 39 35 30 28 29 30 34 34 33 30 30 30
77 79 80 85 85 81 83 87 87 81 78 73 80 90 89 85 71 60 63 65 63 68 61 67 62 55 51 45 48 44 40 35 32 29 28 31 35 36 38 31 29 30 34
78 80 84 85 83 84 91 93 97 89 80 74 82 79 73 67 62 60 56 63 67 60 61 64 62 51 46 43 46 45 46 45 42 37 35 38 37 33 28 35 37 32 23
82 85 85 84 87 93 96 94 92 84 80 79 76 67 65 66 59 59 60 57 56 54 54 57 59 40 32 31 33 34 29 36 39 32 26 25 30 33 34 31 28 25 22
86 86 84 87 95 95 93 90 84 78 73 70 67 60 67 70 60 57 55 51 46 46 47 46 45 33 29 28 24 27 32 30 21 23 23 21 22 20 25 22 21 20 21
88 87 88 92 94 94 92 84 81 73 69 72 67 64 73 56 50 53 51 48 49 50 38 37 34 26 8 16 18 16 17 24 30 33 33 33 31 32 31 25 23 20 22
88 85 90 90 89 87 79 77 73 68 68 78 66 48 52 53 58 52 47 51 47 39 39 44 20 24 19 14 16 18 21 23 26 25 23 18 18 20 24 22 22 22 24
87 90 90 86 83 77 72 72 68 69 59 60 58 57 57 50 61 47 46 52 42 47 40 35 26 14 20 20 22 22 19 19 21 23 25 25 28 30 30 28 28 29 29
88 89 88 83 78 74 72 70 63 55 56 58 65 68 59 66 50 48 50 42 48 38 39 33 27 20 26 19 23 20 15 20 24 26 25 25 21 22 25 30 32 31 31
87 87 83 78 74 70 65 66 63 58 54 58 71 62 67 63 53 51 61 46 41 42 35 33 34 20 17 16 19 18 21 25 28 25 18 17 19 22 23 23 25 28 30
84 83 78 75 74 69 66 64 61 58 56 70 62 63 61 59 52 59 63 52 46 41 37 36 27 15 12 6 17 25 21 13 9 8 8 11 17 20 22 24 25 28 31
80 77 74 73 72 73 68 64 59 53 50 58 57 56 58 58 52 54 46 46 35 32 33 32 23 2 4 9 20 18 13 9 8 9 13 17 19 21 24 26 28 29 32
77 73 71 71 71 71 74 74 60 53 47 43 41 43 48 43 44 45 46 37 34 37 35 30 21 16 10 10 14 14 11 11 16 19 21 23 24 24 24 27 29 31 36
70 67 67 66 67 70 70 72 80 70 57 50 43 41 41 43 42 43 40 43 37 35 31 25 19 17 14 11 11 14 19 23 26 27 27 27 27 27 29 30 32 34 38
66 61 60 61 63 64 66 66 68 72 76 72 55 47 44 43 43 43 40 37 27 21 21 20 17 15 16 19 22 25 27 28 28 29 28 29 30 32 33 34 35 38 41
65 60 58 60 60 61 64 67 68 69 70 71 70 59 50 49 40 51 34 30 30 28 24 21 20 19 17 17 19 22 24 26 28 28 27 30 32 35 37 38 40 41 44
63 57 56 59 61 65 66 69 69 69 68 68 67 66 59 62 65 49 39 34 30 26 26 26 24 23 24 24 24 26 27 28 30 31 32 34 35 39 41 42 43 46 46
63 61 59 59 63 65 67 67 67 67 67 67 66 62 51 53 48 44 41 36 33 31 29 28 26 26 25 26 28 30 31 31 32 34 36 37 39 42 42 45 46 46 46
63 61 61 64 65 66 66 65 66 66 66 67 68 62 53 50 49 48 46 40 34 30 29 33 33 31 30 31 32 34 36 36 35 38 41 41 41 43 43 43 42 42 41
63 66 65 65 65 66 68 66 67 67 68 67 65 63 59 55 51 48 45 42 38 31 29 31 35 36 34 35 36 39 41 39 38 41 42 41 40 39 37 39 37 37 36
67 66 66 66 66 67 68 69 70 69 69 67 64 62 59 55 52 50 46 44 41 37 32 31 34 38 39 38 38 39 41 40 39 39 39 38 36 31 31 33 33 32 29
65 65 65 66 66 67 69 71 72 72 70 67 65 62 58 56 54 52 49 45 41 40 36 32 29 30 33 35 35 35 36 38 37 34 32 31 28 26 27 28 25 24 26
65 64 65 66 67 70 71 73 73 71 69 66 65 62 58 56 56 56 52 48 44 40 35 29 26 25 27 29 30 31 31 29 25 22 21 20 21 21 21 21 21 27 32
Wind_Direction_500mb
325 325 324 324 325 323 320 318 317 315 315 315 314 315 317 319 318 314 310 311 307 300 299 302 297 290 288 288 289 279 269 267 266 264 244 218 208 215 207 208 212 216 221
326 326 326 327 327 325 323 321 318 313 313 311 310 312 313 313 316 317 312 310 309 307 310 312 306 297 288 286 282 278 271 264 261 255 242 219 207 205 200 207 227 235 236
329 329 328 328 328 326 323 322 321 314 312 311 307 309 313 313 311 313 310 308 309 309 309 312 309 303 285 286 281 269 263 261 254 244 218 200 199 206 220 230 239 241 241
331 330 329 328 327 324 322 323 323 319 311 314 306 310 310 314 312 310 308 303 304 305 304 308 303 298 283 280 278 260 254 250 246 239 233 228 228 233 233 226 223 231 231
331 329 329 327 327 325 325 323 321 321 312 307 305 307 309 313 311 309 304 305 305 303 302 312 302 298 282 279 259 255 242 231 226 223 219 213 216 223 233 243 250 245 243
331 331 330 329 328 327 325 322 320 319 315 308 308 309 310 311 309 307 302 301 299 301 310 307 301 295 280 287 248 250 238 226 221 214 216 226 233 235 239 238 233 228 233
334 334 332 331 329 327 323 322 322 321 316 313 313 314 316 317 313 309 304 300 303 302 306 310 304 296 267 254 238 229 230 230 231 223 216 231 238 238 229 225 221 236 233
336 335 333 332 327 327 327 328 327 326 324 322 320 325 315 315 313 312 310 307 303 315 319 313 305 311 276 233 225 233 232 226 217 225 221 234 238 238 237 231 248 230 233
338 335 334 331 331 333 333 334 332 327 329 329 323 309 317 327 325 320 320 315 323 316 315 325 309 317 266 220 209 212 216 227 228 236 240 241 244 244 243 232 215 235 244
336 335 335 337 336 336 337 333 330 334 318 315 321 334 337 337 341 326 321 320 325 317 326 325 312 288 277 245 249 250 236 231 232 217 205 204 203 208 219 223 217 236 258
338 338 339 340 340 341 337 334 335 329 342 336 339 343 343 342 336 331 326 330 331 326 326 327 317 291 261 250 243 250 241 212 199 181 184 196 208 216 225 235 241 248 256
339 340 342 344 345 345 342 340 343 344 344 344 347 350 348 336 335 332 331 332 334 339 329 325 313 326 269 239 215 220 188 178 175 178 192 191 205 220 237 247 252 254 258
341 343 346 348 350 350 345 351 351 353 344 349 344 337 338 340 343 346 356 350 335 339 340 324 312 291 262 231 201 191 187 182 171 173 195 228 250 256 253 253 258 260 262
343 346 348 350 351 351 354 354 351 345 342 339 333 334 334 337 340 350 345 345 344 346 333 337 330 276 306 214 159 182 180 192 211 227 237 257 264 267 266 264 262 264 270
345 347 349 350 349 350 353 354 348 344 336 330 331 331 334 334 338 334 336 338 3 346 334 340 360 202 214 136 168 173 187 216 273 300 305 301 291 280 277 275 277 280 283
346 347 349 348 350 351 350 350 360 355 344 336 333 332 333 331 332 335 337 343 341 329 332 337 341 24 77 125 154 175 210 260 287 294 295 294 287 281 279 279 283 288 291
345 346 345 348 350 350 350 350 346 355 359 1 346 339 339 336 336 337 339 331 329 325 327 328 318 305 302 299 283 275 279 285 288 288 289 287 285 283 282 283 286 289 292
347 345 344 347 349 347 348 347 347 345 346 350 358 350 339 339 340 337 338 322 326 331 333 327 323 312 298 287 281 280 279 281 282 285 288 287 285 285 284 285 289 292 294
347 344 344 347 346 347 346 346 345 344 344 343 347 352 353 353 339 339 339 340 337 334 331 326 319 315 306 295 287 284 284 286 287 288 289 287 286 286 285 287 289 291 292
344 345 346 345 345 347 346 344 344 343 343 344 345 345 348 348 327 338 345 343 335 326 319 314 310 305 300 296 291 288 286 287 288 289 288 286 286 286 289 290 290 291 289
346 348 346 345 347 346 344 344 343 343 344 344 345 345 334 325 331 338 340 338 332 324 315 307 304 302 300 297 294 291 290 289 288 287 285 285 286 285 287 287 288 288 289
348 347 348 347 345 344 344 344 345 346 347 346 346 346 343 342 341 337 334 332 326 318 309 302 301 299 297 294 291 291 290 290 291 288 286 287 287 288 289 288 289 288 287
349 351 347 345 344 344 345 348 348 349 349 349 348 346 346 344 342 339 336 332 327 320 308 297 293 291 289 288 287 288 289 291 292 289 289 286 285 286 285 285 286 285 284
353 348 346 345 346 346 348 349 351 353 351 350 350 349 347 346 344 343 339 334 329 323 315 302 293 290 287 284 282 285 289 292 290 288 285 283 282 280 281 282 284 285 281
351 349 348 347 348 349 350 352 353 353 353 352 352 350 350 349 349 348 345 340 334 328 323 314 301 289 285 284 284 284 283 284 286 283 280 279 280 279 279 282 285 283 286
354 353 351 351 352 353 352 352 353 354 354 354 353 353 353 355 356 355 352 349 345 341 336 329 317 303 293 289 289 289 289 286 281 273 270 271 277 279 280 281 284 290 297
Wind_Speed_850mb
76 75 75 78 79 80 80 81 80 79 80 76 76 76 75 74 73 72 69 68 60 60 62 61 63 66 62 62 59 59 57 57 57 48 38 35 41 44 48 49 46 46 47
74 76 78 79 78 79 79 77 73 72 76 70 69 76 80 80 78 77 73 69 62 59 62 66 66 65 61 61 53 54 53 52 54 52 53 48 47 50 50 42 42 44 46
73 76 78 77 80 80 77 77 79 69 72 74 68 67 79 83 83 79 74 65 59 62 66 74 75 66 64 57 53 53 48 48 48 50 39 50 48 47 38 37 43 42 41
75 78 79 80 83 80 78 81 79 78 75 74 70 81 81 89 87 79 64 60 62 61 65 70 72 65 59 48 56 45 44 39 35 30 28 29 30 34 34 33 30 30 30
77 79 80 85 85 81 83 87 87 81 78 73 80 90 89 85 71 60 63 65 63 68 61 67 62 55 51 45 48 44 40 35 32 29 28 31 35 36 38 31 29 30 34
78 80 84 85 83 84 91 93 97 89 80 74 82 79 73 67 62 60 56 63 67 60 61 64 62 51 46 43 46 45 46 45 42 37 35 38 37 33 28 35 37 32 23
82 85 85 84 87 93 96 94 92 84 80 79 76 67 65 66 59 59 60 57 56 54 54 57 59 40 32 31 33 34 29 36 39 32 26 25 30 33 34 31 28 25 22
86 86 84 87 95 95 93 90 84 78 73 70 67 60 67 70 60 57 55 51 46 46 47 46 45 33 29 28 24 27 32 30 21 23 23 21 22 20 25 22 21 20 21
88 87 88 92 94 94 92 84 81 73 69 72 67 64 73 56 50 53 51 48 49 50 38 37 34 26 8 16 18 16 17 24 30 33 33 33 31 32 31 25 23 20 22
88 85 90 90 89 87 79 77 73 68 68 78 66 48 52 53 58 52 47 51 47 39 39 44 20 24 19 14 16 18 21 23 26 25 23 18 18 20 24 22 22 22 24
87 90 90 86 83 77 72 72 68 69 59 60 58 57 57 50 61 47 46 52 42 47 40 35 26 14 20 20 22 22 19 19 21 23 25 25 28 30 30 28 28 29 29
88 89 88 83 78 74 72 70 63 55 56 58 65 68 59 66 50 48 50 42 48 38 39 33 27 20 26 19 23 20 15 20 24 26 25 25 21 22 25 30 32 31 31
87 87 83 78 74 70 65 66 63 58 54 58 71 62 67 63 53 51 61 46 41 42 35 33 34 20 17 16 19 18 21 25 28 25 18 17 19 22 23 23 25 28 30
84 83 78 75 74 69 66 64 61 58 56 70 62 63 61 59 52 59 63 52 46 41 37 36 27 15 12 6 17 25 21 13 9 8 8 11 17 20 22 24 25 28 31
80 77 74 73 72 73 68 64 59 53 50 58 57 56 58 58 52 54 46 46 35 32 33 32 23 2 4 9 20 18 13 9 8 9 13 17 19 21 24 26 28 29 32
77 73 71 71 71 71 74 74 60 53 47 43 41 43 48 43 44 45 46 37 34 37 35 30 21 16 10 10 14 14 11 11 16 19 21 23 24 24 24 27 29 31 36
70 67 67 66 67 70 70 72 80 70 57 50 43 41 41 43 42 43 40 43 37 35 31 25 19 17 14 11 11 14 19 23 26 27 27 27 27 27 29 30 32 34 38
66 61 60 61 63 64 66 66 68 72 76 72 55 47 44 43 43 43 40 37 27 21 21 20 17 15 16 19 22 25 27 28 28 29 28 29 30 32 33 34 35 38 41
65 60 58 60 60 61 64 67 68 69 70 71 70 59 50 49 40 51 34 30 30 28 24 21 20 19 17 17 19 22 24 26 28 28 27 30 32 35 37 38 40 41 44
63 57 56 59 61 65 66 69 69 69 68 68 67 66 59 62 65 49 39 34 30 26 26 26 24 23 24 24 24 26 27 28 30 31 32 34 35 39 41 42 43 46 46
63 61 59 59 63 65 67 67 67 67 67 67 66 62 51 53 48 44 41 36 33 31 29 28 26 26 25 26 28 30 31 31 32 34 36 37 39 42 42 45 46 46 46
63 61 61 64 65 66 66 65 66 66 66 67 68 62 53 50 49 48 46 40 34 30 29 33 33 31 30 31 32 34 36 36 35 38 41 41 41 43 43 43 42 42 41
63 66 65 65 65 66 68 66 67 67 68 67 65 63 59 55 51 48 45 42 38 31 29 31 35 36 34 35 36 39 41 39 38 41 42 41 40 39 37 39 37 37 36
67 66 66 66 66 67 68 69 70 69 69 67 64 62 59 55 52 50 46 44 41 37 32 31 34 38 39 38 38 39 41 40 39 39 39 38 36 31 31 33 33 32 29
65 65 65 66 66 67 69 71 72 72 70 67 65 62 58 56 54 52 49 45 41 40 36 32 29 30 33 35 35 35 36 38 37 34 32 31 28 26 27 28 25 24 26
65 64 65 66 67 70 71 73 73 71 69 66 65 62 58 56 56 56 52 48 44 40 35 29 26 25 27 29 30 31 31 29 25 22 21 20 21 21 21 21 21 27 32
Wind_Direction_850mb
325 325 324 324 325 323 320 318 317 315 315 315 314 315 317 319 318 314 310 311 307 300 299 302 297 290 288 288 289 279 269 267 266 264 244 218 208 215 207 208 212 216 221
326 326 326 327 327 325 323 321 318 313 313 311 310 312 313 313 316 317 312 310 309 307 310 312 306 297 288 286 282 278 271 264 261 255 242 219 207 205 200 207 227 235 236
329 329 328 328 328 326 323 322 321 314 312 311 307 309 313 313 311 313 310 308 309 309 309 312 309 303 285 286 281 269 263 261 254 244 218 200 199 206 220 230 239 241 241
331 330 329 328 327 324 322 323 323 319 311 314 306 310 310 314 312 310 308 303 304 305 304 308 303 298 283 280 278 260 254 250 246 239 233 228 228 233 233 226 223 231 231
331 329 329 327 327 325 325 323 321 321 312 307 305 307 309 313 311 309 304 305 305 303 302 312 302 298 282 279 259 255 242 231 226 223 219 213 216 223 233 243 250 245 243
331 331 330 329 328 327 325 322 320 319 315 308 308 309 310 311 309 307 302 301 299 301 310 307 301 295 280 287 248 250 238 226 221 214 216 226 233 235 239 238 233 228 233
334 334 332 331 329 327 323 322 322 321 316 313 313 314 316 317 313 309 304 300 303 302 306 310 304 296 267 254 238 229 230 230 231 223 216 231 238 238 229 225 221 236 233
336 335 333 332 327 327 327 328 327 326 324 322 320 325 315 315 313 312 310 307 303 315 319 313 305 311 276 233 225 233 232 226 217 225 221 234 238 238 237 231 248 230 233
338 335 334 331 331 333 333 334 332 327 329 329 323 309 317 327 325 320 320 315 323 316 315 325 309 317 266 220 209 212 216 227 228 236 240 241 244 244 243 232 215 235 244
336 335 335 337 336 336 337 333 330 334 318 315 321 334 337 337 341 326 321 320 325 317 326 325 312 288 277 245 249 250 236 231 232 217 205 204 203 208 219 223 217 236 258
338 338 339 340 340 341 337 334 335 329 342 336 339 343 343 342 336 331 326 330 331 326 326 327 317 291 261 250 243 250 241 212 199 181 184 196 208 216 225 235 241 248 256
339 340 342 344 345 345 342 340 343 344 344 344 347 350 348 336 335 332 331 332 334 339 329 325 313 326 269 239 215 220 188 178 175 178 192 191 205 220 237 247 252 254 258
341 343 346 348 350 350 345 351 351 353 344 349 344 337 338 340 343 346 356 350 335 339 340 324 312 291 262 231 201 191 187 182 171 173 195 228 250 256 253 253 258 260 262
343 346 348 350 351 351 354 354 351 345 342 339 333 334 334 337 340 350 345 345 344 346 333 337 330 276 306 214 159 182 180 192 211 227 237 257 264 267 266 264 262 264 270
345 347 349 350 349 350 353 354 348 344 336 330 331 331 334 334 338 334 336 338 3 346 334 340 360 202 214 136 168 173 187 216 273 300 305 301 291 280 277 275 277 280 283
346 347 349 348 350 351 350 350 360 355 344 336 333 332 333 331 332 335 337 343 341 329 332 337 341 24 77 125 154 175 210 260 287 294 295 294 287 281 279 279 283 288 291
345 346 345 348 350 350 350 350 346 355 359 1 346 339 339 336 336 337 339 331 329 325 327 328 318 305 302 299 283 275 279 285 288 288 289 287 285 283 282 283 286 289 292
347 345 344 347 349 347 348 347 347 345 346 350 358 350 339 339 340 337 338 322 326 331 333 327 323 312 298 287 281 280 279 281 282 285 288 287 285 285 284 285 289 292 294
347 344 344 347 346 347 346 346 345 344 344 343 347 352 353 353 339 339 339 340 337 334 331 326 319 315 306 295 287 284 284 286 287 288 289 287 286 286 285 287 289 291 292
344 345 346 345 345 347 346 344 344 343 343 344 345 345 348 348 327 338 345 343 335 326 319 314 310 305 300 296 291 288 286 287 288 289 288 286 286 286 289 290 290 291 289
346 348 346 345 347 346 344 344 343 343 344 344 345 345 334 325 331 338 340 338 332 324 315 307 304 302 300 297 294 291 290 289 288 287 285 285 286 285 287 287 288 288 289
348 347 348 347 345 344 344 344 345 346 347 346 346 346 343 342 341 337 334 332 326 318 309 302 301 299 297 294 291 291 290 290 291 288 286 287 287 288 289 288 289 288 287
349 351 347 345 344 344 345 348 348 349 349 349 348 346 346 344 342 339 336 332 327 320 308 297 293 291 289 288 287 288 289 291 292 289 289 286 285 286 285 285 286 285 284
353 348 346 345 346 346 348 349 351 353 351 350 350 349 347 346 344 343 339 334 329 323 315 302 293 290 287 284 282 285 289 292 290 288 285 283 282 280 281 282 284 285 281
351 349 348 347 348 349 350 352 353 353 353 352 352 350 350 349 349 348 345 340 334 328 323 314 301 289 285 284 284 284 283 284 286 283 280 279 280 279 279 282 285 283 286
354 353 351 351 352 353 352 352 353 354 354 354 353 353 353 355 356 355 352 349 345 341 336 329 317 303 293 289 289 289 289 286 281 273 270 271 277 279 280 281 284 290 297